Location: Geyikbay?r?
(36.8756°N, 30.4583°E)
Time: 06:43:45
(UTC+00:00)

Meteor 2-19 Rocket - Pass Details

Date: 05 August 2024
Orbit: 935 x 959 km, 82.5° (Epoch: 10 September)

Event Time Altitude Azimuth Distance (km) Brightness Sun altitude
Rises 19:19:16 0° 350° (N) 3,620 8.4 -23.9°
Reaches altitude 10° 19:21:46 10° 349° (N) 2,668 7.6 -24.2°
Maximum altitude 19:27:50 73° 266° (W) 981 4.5 -25.0°
Enters shadow 19:29:49 44° 194° (SSW) 1,270 4.8 -25.3°
